Terug naar catalogus

DELTA 2 DEB

ActiefLEO
NORAD 25138·DEBRIS·🇺🇸 United States

Gelanceerd Jan 10, 1998 vanaf Cape Canaveral Space Force Station

Loading…

Volgende Passages (komende 24 uur)

TLE

VersSource: Space-Track

Epoch: Sep 14, 2026, 11:01 UTC

1 25138U 98002E   26257.45921139  .00000603  00000-0  36436-3 0  9998
2 25138  26.8764 166.7016 0321799 351.0281 171.0499 13.72490818434243

Volg DELTA 2 DEB in realtime met AllMySat

Download on the App Store